This demonstration page uses our WeatherBlox Daily Observations layout. Learn more.

Left ArrowRight Arrow

36.19886, -115.1175

Hourly Observations for May 23, 2022

Temp ( °F °C ) Dew Point ( °F °C ) Humidity (%) Winds ( mph kmh ) Pressure ( in mb ) Visibility ( mi km ) Precip ( " mm )
12:53 am 00:53 Clear 81 27.2 23 -5 12 12 S 3 6 29.79 1009 10 16 0.00 0.00
1:53 am 01:53 Clear 81 27.2 19 -7.2 10 10 NNW 9 15 29.80 1009 10 16 0.00 0.00
2:53 am 02:53 Clear 78 25.6 14 -10 9 9 ENE 3 6 29.82 1010 10 16 0.00 0.00
3:53 am 03:53 Clear 76 24.4 18 -7.8 11 11 NNE 5 7 29.85 1011 10 16 0.00 0.00
4:53 am 04:53 Clear 74 23.3 20 -6.7 13 13 ENE 10 17 29.86 1011 10 16 0.00 0.00
5:53 am 05:53 Sunny 72 22.2 20 -6.7 14 14 Calm 29.90 1012 10 16 0.00 0.00
6:53 am 06:53 Sunny 75 23.9 23 -5 14 14 N 14 22 29.91 1013 10 16 0.00 0.00
7:53 am 07:53 Sunny 77 25 23 -5 13 13 NNW 15 24 29.92 1013 10 16 0.00 0.00
8:53 am 08:53 Sunny 78 25.6 23 -5 13 13 undefined N/A 29.93 1013 10 16 0.00 0.00
9:53 am 09:53 Sunny 81 27.2 23 -5 12 12 E 12 19 29.91 1013 10 16 0.00 0.00
10:53 am 10:53 Sunny 83 28.3 24 -4.4 11 11 undefined N/A 29.91 1013 10 16 0.00 0.00
11:53 am 11:53 Sunny 84 28.9 24 -4.4 11 11 ESE 10 17 29.89 1012 10 16 0.00 0.00
12:53 pm 12:53 Sunny 85 29.4 23 -5 10 10 E 7 11 29.85 1011 10 16 0.00 0.00
1:53 pm 13:53 Sunny 87 30.6 22 -5.6 9 9 E 12 19 29.83 1010 10 16 0.00 0.00
2:53 pm 14:53 Sunny 88 31.1 22 -5.6 9 9 E 8 13 29.81 1009 10 16 0.00 0.00
3:53 pm 15:53 Sunny 89 31.7 22 -5.6 8 8 ESE 9 15 29.78 1009 10 16 0.00 0.00
4:53 pm 16:53 Sunny 88 31.1 22 -5.6 9 9 SE 5 7 29.78 1008 10 16 0.00 0.00
5:53 pm 17:53 Sunny 89 31.7 22 -5.6 8 8 Calm 29.76 1008 10 16 0.00 0.00
6:53 pm 18:53 Sunny 88 31.1 22 -5.6 9 9 E 5 7 29.75 1007 10 16 0.00 0.00
7:53 pm 19:53 Clear 85 29.4 21 -6.1 9 9 ESE 12 19 29.76 1008 10 16 0.00 0.00
8:53 pm 20:53 Clear 83 28.3 21 -6.1 10 10 ESE 7 11 29.78 1008 10 16 0.00 0.00
9:53 pm 21:53 Clear 82 27.8 22 -5.6 11 11 Calm 29.79 1009 10 16 0.00 0.00
10:53 pm 22:53 Clear 79 26.1 23 -5 12 12 NNW 5 7 29.79 1009 10 16 0.00 0.00
11:53 pm 23:53 Clear 77 25 26 -3.3 15 15 WNW 6 9 29.80 1009 10 16 0.00 0.00

Powered by AerisWeather